Weather History for Pagosa Springs, CO

Change the Weather History Date:

Friday, March 28, 2014

  Actual Average (KDRO) Record (KDRO)
Temperature  
Mean Temperature 37 °F 41 °F  
Max Temperature 51 °F 56 °F 74 °F (1986)
Min Temperature 23 °F 25 °F 7 °F (1970)
Degree Days  
Heating Degree Days 28 24  
Month to date heating degree days 783  
Since 1 July heating degree days 5958  
Cooling Degree Days 0 0  
Month to date cooling degree days 0  
Year to date cooling degree days 0  
Moisture  
Dew Point 10 °F    
Average Humidity 39    
Maximum Humidity 77    
Minimum Humidity 12    
Precipitation  
Precipitation 0.00 in 0.04 in 0.37 in (1979)
Month to date precipitation 1.13  
Year to date precipitation 3.41  
Sea Level Pressure  
Sea Level Pressure 30.09 in    
Wind  
Wind Speed 2 mph (WNW)    
Max Wind Speed 15 mph    
Max Gust Speed 18 mph    
Visibility 10 miles    
Events Thunderstorm    
T = Trace of Precipitation, MM = Missing Value Source: NWS Daily Summary

Daily Weather History Graph

Daily Weather History Graph

Search for Another Location

Airport:

Trip Planner

Search our weather history database for the weather conditions in past years. The results will help you decide how hot, cold, wet, or windy it might be!

Date:

Astronomy

Mar. 28, 2014 Rise Set
Actual Time 6:59 AM MDT 7:27 PM MDT
Civil Twilight 6:33 AM MDT 7:53 PM MDT
Nautical Twilight 6:02 AM MDT 8:24 PM MDT
Astronomical Twilight 5:31 AM MDT 8:55 PM MDT
Moon 5:29 AM MDT (3/28) 5:29 PM MDT (3/28)
Length of Visible Light 13h 19m
Length of Day
12h 27m
Waning Crescent, 6% of the Moon is Illuminated
Mar 28
Waning Crescent
Mar 30
New
Apr 7
First Quarter
Apr 15
Full
Apr 22
Last Quarter

Hourly Weather History & Observations

Time (MDT) Temp. Windchill Dew Point Humidity Pressure Visibility Wind Dir Wind Speed Gust Speed Precip Events Conditions
12:15 AM 34.0 °F - 15.8 °F 47% 29.97 in 10.0 mi Calm Calm - N/A   Mostly Cloudy
12:35 AM 34.5 °F - 15.6 °F 46% 29.96 in 10.0 mi Calm Calm - N/A   Scattered Clouds
12:55 AM 30.9 °F - 16.5 °F 55% 29.97 in 10.0 mi Calm Calm - N/A   Clear
1:15 AM 30.2 °F - 18.3 °F 61% 29.97 in 10.0 mi Calm Calm - N/A   Clear
1:35 AM 28.6 °F 24.8 °F 17.4 °F 63% 29.97 in 10.0 mi NW 3.5 mph - N/A   Clear
1:55 AM 29.7 °F - 18.0 °F 62% 29.97 in 10.0 mi Calm Calm - N/A   Clear
2:15 AM 28.2 °F - 18.3 °F 66% 29.97 in 10.0 mi Calm Calm - N/A   Clear
2:35 AM 28.4 °F - 17.6 °F 64% 29.97 in 10.0 mi Calm Calm - N/A   Clear
2:55 AM 27.5 °F - 18.3 °F 68% 29.97 in 10.0 mi Calm Calm - N/A   Clear
3:15 AM 28.0 °F - 17.1 °F 63% 29.97 in 10.0 mi Calm Calm - N/A   Clear
3:35 AM 27.7 °F - 16.9 °F 64% 29.97 in 10.0 mi Calm Calm - N/A   Clear
3:55 AM 25.5 °F - 17.1 °F 70% 29.97 in 10.0 mi Calm Calm - N/A   Clear
4:15 AM 25.9 °F - 16.7 °F 68% 29.97 in 10.0 mi Calm Calm - N/A   Clear
4:35 AM 26.2 °F - 16.7 °F 67% 29.97 in 10.0 mi Calm Calm - N/A   Clear
4:55 AM 24.6 °F - 17.1 °F 73% 29.98 in 10.0 mi Calm Calm - N/A   Clear
5:15 AM 23.9 °F - 17.6 °F 77% 29.99 in 10.0 mi Calm Calm - N/A   Clear
5:35 AM 25.5 °F 21.3 °F 16.2 °F 68% 29.99 in 10.0 mi East 3.5 mph - N/A   Clear
5:55 AM 24.6 °F - 16.9 °F 72% 29.99 in 10.0 mi Calm Calm - N/A   Clear
6:15 AM 24.8 °F - 16.5 °F 71% 30.00 in 10.0 mi Calm Calm - N/A Thunderstorm Clear
6:35 AM 23.9 °F - 16.9 °F 75% 30.01 in 10.0 mi Calm Calm - N/A   Clear
6:55 AM 24.1 °F - 17.6 °F 76% 30.02 in 10.0 mi Calm Calm - N/A   Clear
7:15 AM 24.8 °F - 17.6 °F 74% 30.04 in 10.0 mi Calm Calm - N/A   Clear
7:35 AM 25.0 °F - 17.4 °F 73% 30.04 in 10.0 mi Calm Calm - N/A   Clear
7:55 AM 26.6 °F - 19.0 °F 73% 30.05 in 10.0 mi Calm Calm - N/A   Clear
8:15 AM 29.1 °F - 18.1 °F 64% 30.05 in 10.0 mi Calm Calm - N/A   Clear
8:35 AM 31.6 °F - 17.4 °F 56% 30.07 in 10.0 mi Calm Calm - N/A   Clear
8:55 AM 32.9 °F 28.5 °F 18.3 °F 55% 30.08 in 10.0 mi SSW 4.6 mph - N/A   Clear
9:15 AM 34.0 °F - 18.0 °F 52% 30.09 in 10.0 mi Calm Calm - N/A   Clear
9:35 AM 35.6 °F - 18.7 °F 50% 30.09 in 10.0 mi Calm Calm - N/A   Clear
10:15 AM 39.2 °F 37.0 °F 12.2 °F 33% 30.10 in 10.0 mi South 3.5 mph - N/A   Clear
10:35 AM 40.3 °F 36.3 °F 11.3 °F 31% 30.10 in 10.0 mi South 5.8 mph - N/A   Clear
10:55 AM 41.0 °F 39.0 °F 9.9 °F 28% 30.12 in 10.0 mi West 3.5 mph - N/A   Clear
11:15 AM 41.9 °F - 11.7 °F 29% 30.12 in 10.0 mi Calm Calm - N/A   Clear
11:35 AM 42.4 °F 35.0 °F 10.4 °F 27% 30.11 in 10.0 mi South 15.0 mph 18.4 mph N/A   Clear
11:55 AM 42.4 °F 40.7 °F 9.1 °F 26% 30.12 in 10.0 mi SSE 3.5 mph - N/A   Scattered Clouds
12:15 PM 43.7 °F - 9.5 °F 25% 30.12 in 10.0 mi Calm Calm - N/A   Clear
12:35 PM 44.8 °F - 8.2 °F 23% 30.12 in 10.0 mi Calm Calm - N/A   Scattered Clouds
12:55 PM 45.9 °F - 7.0 °F 20% 30.11 in 10.0 mi Calm Calm - N/A   Clear
1:15 PM 47.1 °F - 6.3 °F 19% 30.11 in 10.0 mi SE 4.6 mph - N/A   Clear
1:35 PM 49.3 °F - 5.5 °F 17% 30.10 in 10.0 mi Calm Calm - N/A   Clear
1:55 PM 48.9 °F - 3.0 °F 15% 30.10 in 10.0 mi NNW 8.1 mph - N/A   Clear
2:15 PM 49.1 °F - 3.9 °F 16% 30.10 in 10.0 mi WNW 6.9 mph - N/A   Clear
2:35 PM 49.3 °F - 0.3 °F 13% 30.10 in 10.0 mi SSW 4.6 mph - N/A   Clear
2:55 PM 49.8 °F - -0.0 °F 13% 30.10 in 10.0 mi Calm Calm - N/A   Clear
3:15 PM 49.6 °F - -0.4 °F 13% 30.10 in 10.0 mi SSE 8.1 mph - N/A   Clear
3:35 PM 51.3 °F - 0.3 °F 12% 30.09 in 10.0 mi West 10.4 mph - N/A   Clear
3:55 PM 50.0 °F - -1.8 °F 12% 30.10 in 10.0 mi Calm Calm - N/A   Clear
4:15 PM 51.1 °F - -0.2 °F 12% 30.10 in 10.0 mi NW 3.5 mph - N/A   Clear
4:35 PM 51.4 °F - 0.1 °F 12% 30.11 in 10.0 mi West 9.2 mph 16.1 mph N/A   Clear
4:55 PM 51.1 °F - -0.0 °F 12% 30.12 in 10.0 mi NW 10.4 mph 17.3 mph N/A   Clear
5:15 PM 49.8 °F - -2.0 °F 12% 30.12 in 10.0 mi West 3.5 mph - N/A   Clear
5:35 PM 50.2 °F - -1.8 °F 12% 30.13 in 10.0 mi Calm Calm - N/A   Clear
5:55 PM 50.0 °F - -1.5 °F 12% 30.13 in 10.0 mi West 9.2 mph - N/A   Clear
6:15 PM 49.5 °F - -2.6 °F 12% 30.14 in 10.0 mi NW 9.2 mph - N/A   Clear
6:35 PM 48.7 °F - -1.8 °F 12% 30.15 in 10.0 mi NW 10.4 mph - N/A   Clear
6:55 PM 47.7 °F - -3.5 °F 12% 30.17 in 10.0 mi NNW 6.9 mph - N/A   Clear
7:15 PM 46.4 °F 42.4 °F -2.7 °F 13% 30.17 in 10.0 mi NW 8.1 mph - N/A   Clear
7:35 PM 44.6 °F 41.4 °F -1.5 °F 15% 30.19 in 10.0 mi NW 5.8 mph - N/A   Clear
7:55 PM 42.6 °F 38.4 °F 1.6 °F 18% 30.19 in 10.0 mi NW 6.9 mph - N/A   Clear
8:15 PM 41.2 °F 35.5 °F 4.3 °F 22% 30.19 in 10.0 mi WNW 9.2 mph - N/A   Clear
8:35 PM 40.8 °F 37.8 °F 4.6 °F 22% 30.21 in 10.0 mi NW 4.6 mph - N/A   Clear
8:55 PM 38.1 °F 32.9 °F 6.8 °F 27% 30.22 in 10.0 mi NW 6.9 mph - N/A   Clear
9:15 PM 37.6 °F 33.1 °F 6.4 °F 27% 30.23 in 10.0 mi NW 5.8 mph - N/A   Clear
9:35 PM 35.2 °F 32.4 °F 6.6 °F 30% 30.24 in 10.0 mi NNE 3.5 mph - N/A   Clear
9:55 PM 34.5 °F - 5.7 °F 30% 30.26 in 10.0 mi Calm Calm - N/A   Clear
10:15 PM 34.5 °F 31.6 °F 6.3 °F 31% 30.26 in 10.0 mi North 3.5 mph - N/A   Clear
10:35 PM 35.1 °F - 4.1 °F 27% 30.27 in 10.0 mi Calm Calm - N/A   Clear
10:55 PM 33.1 °F 30.0 °F 6.3 °F 32% 30.27 in 10.0 mi SE 3.5 mph - N/A   Clear
11:15 PM 29.8 °F - 13.6 °F 51% 30.27 in 10.0 mi Calm Calm - N/A   Clear
11:35 PM 31.8 °F - 9.5 °F 39% 30.27 in 10.0 mi Calm Calm - N/A   Clear
11:55 PM 28.8 °F - 11.1 °F 48% 30.28 in 10.0 mi Calm Calm - N/A   Clear